DNO229 ULLI-LOWW

Flight info

Callsign DNO229
Flight time 2h 9m
Altitude 36000
Route TURAL L870 RESMO DCT VALGA M985 ERIVA DCT BOKSU M985 EVINA N744 TUSIN DCT TOVKA
Aircraft A320/M-SDE3FGHIRWY/LB1

Departure

Time 2026-04-24 14:07
Airport Pulkovo Airport (ULLI)

Arrival

Time 2026-04-24 16:17
Airport Vienna International Airport (LOWW)
Time Latitude Longitude Altitude Speed Heading
2026-04-24 14:01 59.80105 30.28068 78 ft 0 kts 20°
2026-04-24 14:03 59.80109 30.28071 78 ft 2 kts 20°
2026-04-24 14:03 59.80130 30.28088 80 ft 5 kts 22°
2026-04-24 14:03 59.80175 30.28134 79 ft 10 kts 36°
2026-04-24 14:03 59.80184 30.28270 78 ft 12 kts 107°
2026-04-24 14:04 59.80157 30.28443 68 ft 14 kts 106°
2026-04-24 14:04 59.80124 30.28651 71 ft 17 kts 107°
2026-04-24 14:04 59.80089 30.28893 67 ft 19 kts 107°
2026-04-24 14:04 59.80046 30.29165 73 ft 22 kts 107°
2026-04-24 14:05 59.80012 30.29411 66 ft 15 kts 105°
2026-04-24 14:05 59.79979 30.29634 71 ft 18 kts 107°
2026-04-24 14:05 59.79942 30.29889 64 ft 20 kts 105°
2026-04-24 14:05 59.79975 30.30104 73 ft 18 kts 46°
2026-04-24 14:06 59.80073 30.30274 72 ft 19 kts 20°
2026-04-24 14:06 59.80127 30.30175 70 ft 14 kts 284°
2026-04-24 14:06 59.80219 30.29565 79 ft 89 kts 288°
2026-04-24 14:06 59.80475 30.27913 84 ft 157 kts 287°
2026-04-24 14:07 59.80800 30.25635 527 ft 177 kts 286°
2026-04-24 14:07 59.81134 30.23274 1492 ft 176 kts 290°
2026-04-24 14:07 59.81485 30.20938 2365 ft 177 kts 291°
2026-04-24 14:07 59.81858 30.18481 2670 ft 197 kts 291°
2026-04-24 14:08 59.82274 30.15742 2976 ft 218 kts 290°
2026-04-24 14:08 59.82721 30.12784 3515 ft 232 kts 290°
2026-04-24 14:08 59.83197 30.09600 4071 ft 246 kts 289°
2026-04-24 14:08 59.83682 30.06298 4902 ft 251 kts 289°
2026-04-24 14:09 59.84169 30.02945 5781 ft 254 kts 289°
2026-04-24 14:09 59.84518 29.99485 6626 ft 260 kts 276°
2026-04-24 14:09 59.84348 29.95868 7440 ft 268 kts 259°
2026-04-24 14:09 59.83671 29.92418 8248 ft 275 kts 250°
2026-04-24 14:10 59.83124 29.90085 8798 ft 277 kts 250°
2026-04-24 14:10 59.82041 29.85472 9840 ft 280 kts 250°
2026-04-24 14:10 59.81183 29.81794 10149 ft 301 kts 251°
2026-04-24 14:10 59.80279 29.77881 10302 ft 323 kts 250°
2026-04-24 14:11 59.79328 29.73781 10659 ft 336 kts 250°
2026-04-24 14:11 59.78334 29.69541 11286 ft 341 kts 250°
2026-04-24 14:11 59.76293 29.60912 12562 ft 349 kts 251°
2026-04-24 14:12 59.75253 29.56523 13206 ft 353 kts 251°
2026-04-24 14:12 59.74203 29.52087 13807 ft 357 kts 251°
2026-04-24 14:12 59.73143 29.47609 14362 ft 360 kts 252°
2026-04-24 14:12 59.72072 29.43098 14914 ft 364 kts 252°
2026-04-24 14:13 59.70986 29.38546 15428 ft 367 kts 252°
2026-04-24 14:13 59.69891 29.33956 16003 ft 370 kts 252°
2026-04-24 14:13 59.68787 29.29330 16565 ft 373 kts 253°
2026-04-24 14:13 59.67672 29.24668 17136 ft 377 kts 253°
2026-04-24 14:14 59.66546 29.19967 17696 ft 380 kts 253°
2026-04-24 14:14 59.65406 29.15220 18255 ft 384 kts 253°
2026-04-24 14:14 59.63087 29.05618 19303 ft 390 kts 254°
2026-04-24 14:15 59.62003 29.00716 19840 ft 386 kts 260°
2026-04-24 14:15 59.61108 28.95703 20372 ft 388 kts 261°
2026-04-24 14:15 59.60212 28.90650 20842 ft 391 kts 261°
2026-04-24 14:15 59.59312 28.85569 21334 ft 394 kts 261°
2026-04-24 14:16 59.58404 28.80455 21816 ft 396 kts 261°
2026-04-24 14:16 59.57487 28.75308 22288 ft 399 kts 261°
2026-04-24 14:16 59.56560 28.70138 22753 ft 401 kts 261°
2026-04-24 14:17 59.54676 28.59701 23588 ft 407 kts 261°
2026-04-24 14:17 59.53723 28.54437 23955 ft 409 kts 261°
2026-04-24 14:17 59.51801 28.43833 24668 ft 413 kts 261°
2026-04-24 14:18 59.50841 28.38493 24999 ft 415 kts 261°
2026-04-24 14:18 59.49876 28.33123 25377 ft 416 kts 260°
2026-04-24 14:18 59.48911 28.27758 25727 ft 417 kts 260°
2026-04-24 14:18 59.47940 28.22367 26073 ft 419 kts 260°
2026-04-24 14:19 59.47290 28.18782 26293 ft 421 kts 260°
2026-04-24 14:19 59.45965 28.11508 26680 ft 424 kts 259°
2026-04-24 14:19 59.44957 28.06034 26998 ft 427 kts 259°
2026-04-24 14:19 59.43917 28.00549 27336 ft 430 kts 258°
2026-04-24 14:20 59.42853 27.95040 27650 ft 432 kts 258°
2026-04-24 14:20 59.41774 27.89511 27956 ft 434 kts 258°
2026-04-24 14:20 59.40688 27.83982 28397 ft 433 kts 258°
2026-04-24 14:20 59.39605 27.78475 28855 ft 432 kts 258°
2026-04-24 14:21 59.38526 27.72977 29311 ft 431 kts 258°
2026-04-24 14:21 59.37450 27.67493 29766 ft 430 kts 258°
2026-04-24 14:21 59.36379 27.62012 30160 ft 430 kts 258°
2026-04-24 14:21 59.35234 27.56592 30538 ft 436 kts 252°
2026-04-24 14:22 59.33626 27.51556 30909 ft 449 kts 241°
2026-04-24 14:22 59.31422 27.47001 31286 ft 463 kts 228°
2026-04-24 14:22 59.25878 27.40195 32051 ft 473 kts 217°
2026-04-24 14:23 59.23982 27.38108 32312 ft 472 kts 217°
2026-04-24 14:23 59.21119 27.34956 32704 ft 472 kts 217°
2026-04-24 14:23 59.18268 27.31806 33093 ft 471 kts 217°
2026-04-24 14:23 59.15421 27.28658 33479 ft 470 kts 217°
2026-04-24 14:24 59.12577 27.25525 33846 ft 470 kts 217°
2026-04-24 14:24 59.09735 27.22402 34153 ft 469 kts 216°
2026-04-24 14:24 59.05969 27.18281 34542 ft 469 kts 216°
2026-04-24 14:24 59.04050 27.16190 34702 ft 468 kts 216°
2026-04-24 14:25 59.01210 27.13102 35014 ft 467 kts 215°
2026-04-24 14:25 58.98381 27.10022 35300 ft 466 kts 215°
2026-04-24 14:25 58.95554 27.06951 35567 ft 466 kts 215°
2026-04-24 14:25 58.92723 27.03881 35734 ft 467 kts 215°
2026-04-24 14:26 58.89878 27.00795 35778 ft 472 kts 215°
2026-04-24 14:26 58.84101 26.94533 35766 ft 479 kts 214°
2026-04-24 14:27 58.78273 26.88280 35761 ft 480 kts 214°
2026-04-24 14:27 58.72432 26.82047 35764 ft 480 kts 214°
2026-04-24 14:28 58.66599 26.75815 35765 ft 480 kts 214°
2026-04-24 14:28 58.60761 26.69600 35758 ft 480 kts 214°
2026-04-24 14:29 58.54951 26.63449 35740 ft 480 kts 214°
2026-04-24 14:29 58.49098 26.57276 35762 ft 480 kts 214°
2026-04-24 14:30 58.43249 26.51135 35775 ft 480 kts 214°
2026-04-24 14:30 58.37395 26.45025 35777 ft 479 kts 214°
2026-04-24 14:31 58.31541 26.38936 35753 ft 479 kts 214°
2026-04-24 14:31 58.25691 26.32854 35740 ft 479 kts 213°
2026-04-24 14:32 58.19845 26.26801 35761 ft 478 kts 213°
2026-04-24 14:32 58.13997 26.20770 35782 ft 478 kts 213°
2026-04-24 14:33 58.08152 26.14772 35786 ft 478 kts 213°
2026-04-24 14:33 58.02299 26.08791 35767 ft 478 kts 213°
2026-04-24 14:34 57.96459 26.02832 35783 ft 477 kts 213°
2026-04-24 14:34 57.90623 25.96902 35787 ft 476 kts 213°
2026-04-24 14:35 57.84780 25.91020 35789 ft 476 kts 212°
2026-04-24 14:35 57.78842 25.85482 35755 ft 477 kts 210°
2026-04-24 14:36 57.72827 25.80214 35776 ft 477 kts 209°
2026-04-24 14:36 57.66823 25.74943 35783 ft 476 kts 210°
2026-04-24 14:37 57.60845 25.69614 35787 ft 476 kts 210°
2026-04-24 14:37 57.54881 25.64265 35788 ft 476 kts 210°
2026-04-24 14:38 57.48917 25.58953 35778 ft 475 kts 210°
2026-04-24 14:38 57.42950 25.53688 35798 ft 474 kts 209°
2026-04-24 14:39 57.37029 25.48477 35801 ft 474 kts 210°
2026-04-24 14:39 57.31071 25.43240 35808 ft 474 kts 209°
2026-04-24 14:40 57.25111 25.38042 35798 ft 474 kts 209°
2026-04-24 14:40 57.19149 25.32850 35809 ft 473 kts 209°
2026-04-24 14:41 57.13194 25.27680 35825 ft 473 kts 209°
2026-04-24 14:41 57.07234 25.22537 35825 ft 473 kts 209°
2026-04-24 14:42 57.01278 25.17406 35814 ft 473 kts 209°
2026-04-24 14:42 56.95326 25.12284 35818 ft 472 kts 209°
2026-04-24 14:43 56.89376 25.07181 35842 ft 472 kts 209°
2026-04-24 14:43 56.83427 25.02093 35848 ft 472 kts 209°
2026-04-24 14:44 56.77473 24.97047 35823 ft 471 kts 208°
2026-04-24 14:44 56.71528 24.92033 35841 ft 470 kts 208°
2026-04-24 14:45 56.65593 24.87023 35847 ft 470 kts 208°
2026-04-24 14:45 56.59664 24.82032 35847 ft 470 kts 208°
2026-04-24 14:46 56.53737 24.77065 35833 ft 469 kts 208°
2026-04-24 14:46 56.47809 24.72122 35830 ft 469 kts 208°
2026-04-24 14:47 56.41888 24.67193 35842 ft 468 kts 208°
2026-04-24 14:47 56.36005 24.62315 35845 ft 468 kts 208°
2026-04-24 14:48 56.30065 24.57487 35839 ft 468 kts 207°
2026-04-24 14:48 56.24101 24.52738 35835 ft 469 kts 207°
2026-04-24 14:49 56.18138 24.47997 35840 ft 469 kts 207°
2026-04-24 14:49 56.12187 24.43242 35847 ft 468 kts 207°
2026-04-24 14:50 56.06232 24.38498 35844 ft 468 kts 207°
2026-04-24 14:50 56.00269 24.33787 35839 ft 468 kts 207°
2026-04-24 14:51 55.94317 24.29099 35842 ft 468 kts 207°
2026-04-24 14:51 55.88369 24.24421 35845 ft 467 kts 207°
2026-04-24 14:52 55.82416 24.19743 35853 ft 467 kts 207°
2026-04-24 14:52 55.76476 24.15095 35839 ft 466 kts 207°
2026-04-24 14:53 55.70537 24.10478 35856 ft 466 kts 207°
2026-04-24 14:53 55.64600 24.05877 35862 ft 466 kts 207°
2026-04-24 14:54 55.58665 24.01291 35858 ft 465 kts 207°
2026-04-24 14:54 55.52732 23.96721 35838 ft 465 kts 207°
2026-04-24 14:55 55.47808 23.92934 35847 ft 464 kts 207°
2026-04-24 14:55 55.40881 23.87622 35861 ft 464 kts 207°
2026-04-24 14:56 55.34961 23.83101 35865 ft 464 kts 207°
2026-04-24 14:56 55.29035 23.78606 35847 ft 464 kts 207°
2026-04-24 14:57 55.23110 23.74113 35859 ft 464 kts 207°
2026-04-24 14:57 55.17182 23.69629 35867 ft 464 kts 207°
2026-04-24 14:58 55.11251 23.65156 35867 ft 464 kts 207°
2026-04-24 14:58 55.05316 23.60696 35846 ft 464 kts 207°
2026-04-24 14:59 54.99371 23.56265 35850 ft 465 kts 207°
2026-04-24 14:59 54.93467 23.51864 35870 ft 465 kts 207°
2026-04-24 15:00 54.87525 23.47440 35870 ft 465 kts 207°
2026-04-24 15:00 54.81576 23.43028 35856 ft 465 kts 207°
2026-04-24 15:01 54.75623 23.38626 35864 ft 465 kts 207°
2026-04-24 15:01 54.69658 23.34241 35868 ft 466 kts 207°
2026-04-24 15:02 54.63690 23.29868 35878 ft 466 kts 207°
2026-04-24 15:02 54.57722 23.25492 35864 ft 466 kts 207°
2026-04-24 15:03 54.52756 23.21867 35865 ft 467 kts 207°
2026-04-24 15:03 54.45754 23.16769 35878 ft 468 kts 207°
2026-04-24 15:04 54.39754 23.12422 35886 ft 468 kts 207°
2026-04-24 15:04 54.33745 23.08085 35875 ft 469 kts 207°
2026-04-24 15:05 54.27719 23.03785 35882 ft 470 kts 206°
2026-04-24 15:05 54.21628 22.99696 35887 ft 471 kts 206°
2026-04-24 15:06 54.15505 22.95692 35894 ft 471 kts 205°
2026-04-24 15:06 54.09390 22.91669 35880 ft 471 kts 206°
2026-04-24 15:07 54.03623 22.86640 35882 ft 464 kts 217°
2026-04-24 15:07 53.98122 22.81011 35889 ft 465 kts 216°
2026-04-24 15:08 53.92556 22.75389 35898 ft 466 kts 216°
2026-04-24 15:08 53.86975 22.69791 35908 ft 466 kts 216°
2026-04-24 15:09 53.81402 22.64201 35917 ft 466 kts 216°
2026-04-24 15:09 53.75830 22.58605 35918 ft 466 kts 216°
2026-04-24 15:10 53.70250 22.53032 35920 ft 466 kts 216°
2026-04-24 15:10 53.65608 22.48415 35928 ft 466 kts 216°
2026-04-24 15:11 53.60027 22.42864 35916 ft 466 kts 216°
2026-04-24 15:11 53.54432 22.37327 35928 ft 466 kts 216°
2026-04-24 15:12 53.48841 22.31809 35921 ft 466 kts 216°
2026-04-24 15:12 53.40448 22.23556 35912 ft 466 kts 216°
2026-04-24 15:13 53.34854 22.18072 35927 ft 466 kts 216°
2026-04-24 15:13 53.29248 22.12603 35941 ft 466 kts 216°
2026-04-24 15:14 53.23641 22.07151 35938 ft 466 kts 216°
2026-04-24 15:14 53.18030 22.01717 35923 ft 466 kts 216°
2026-04-24 15:15 53.12423 21.96288 35936 ft 466 kts 216°
2026-04-24 15:15 53.06809 21.90871 35945 ft 466 kts 216°
2026-04-24 15:16 53.01192 21.85461 35947 ft 467 kts 216°
2026-04-24 15:16 52.95564 21.80079 35929 ft 467 kts 217°
2026-04-24 15:17 52.89935 21.74712 35940 ft 467 kts 217°
2026-04-24 15:17 52.84303 21.69346 35952 ft 467 kts 217°
2026-04-24 15:18 52.78670 21.63995 35953 ft 467 kts 216°
2026-04-24 15:18 52.73036 21.58659 35923 ft 467 kts 217°
2026-04-24 15:19 52.67405 21.53332 35937 ft 466 kts 217°
2026-04-24 15:19 52.61768 21.48033 35946 ft 466 kts 217°
2026-04-24 15:20 52.56133 21.42754 35950 ft 466 kts 217°
2026-04-24 15:20 52.50531 21.37509 35932 ft 466 kts 217°
2026-04-24 15:21 52.44890 21.32239 35940 ft 466 kts 217°
2026-04-24 15:21 52.39247 21.26984 35949 ft 467 kts 217°
2026-04-24 15:22 52.33597 21.21739 35956 ft 467 kts 217°
2026-04-24 15:23 52.25097 21.13891 35944 ft 468 kts 217°
2026-04-24 15:23 52.16591 21.06049 35957 ft 468 kts 217°
2026-04-24 15:25 52.03360 20.93927 35943 ft 468 kts 216°
2026-04-24 15:26 51.88177 20.80139 35951 ft 469 kts 216°
2026-04-24 15:27 51.71061 20.64731 35955 ft 470 kts 216°
2026-04-24 15:29 51.53920 20.49398 35981 ft 470 kts 216°
2026-04-24 15:31 51.34375 20.30712 35976 ft 462 kts 225°
2026-04-24 15:33 51.13832 20.06002 35981 ft 463 kts 224°
2026-04-24 15:34 51.00921 19.90665 35971 ft 464 kts 224°
2026-04-24 15:35 50.87998 19.75409 36000 ft 465 kts 224°
2026-04-24 15:36 50.82842 19.69350 35988 ft 465 kts 223°
2026-04-24 15:36 50.75001 19.60186 35998 ft 465 kts 223°
2026-04-24 15:37 50.69832 19.54144 36006 ft 466 kts 223°
2026-04-24 15:37 50.64616 19.48070 36012 ft 466 kts 223°
2026-04-24 15:38 50.59386 19.42021 35995 ft 467 kts 223°
2026-04-24 15:38 50.54151 19.35975 36022 ft 467 kts 223°
2026-04-24 15:39 50.48917 19.29935 36033 ft 467 kts 223°
2026-04-24 15:39 50.43644 19.23876 36023 ft 467 kts 222°
2026-04-24 15:40 50.38440 19.17910 36029 ft 466 kts 222°
2026-04-24 15:40 50.33202 19.11915 36034 ft 467 kts 222°
2026-04-24 15:41 50.27960 19.05934 36032 ft 467 kts 222°
2026-04-24 15:41 50.22704 18.99958 36017 ft 467 kts 222°
2026-04-24 15:42 50.17448 18.93993 36013 ft 467 kts 222°
2026-04-24 15:42 50.12180 18.88039 36012 ft 468 kts 222°
2026-04-24 15:43 50.06899 18.82092 36020 ft 469 kts 221°
2026-04-24 15:43 50.01614 18.76151 36006 ft 469 kts 221°
2026-04-24 15:44 49.96318 18.70200 36011 ft 470 kts 221°
2026-04-24 15:44 49.91011 18.64259 36014 ft 471 kts 221°
2026-04-24 15:45 49.85681 18.58323 36021 ft 472 kts 221°
2026-04-24 15:45 49.80322 18.52435 36007 ft 473 kts 220°
2026-04-24 15:46 49.74921 18.46633 36013 ft 473 kts 220°
2026-04-24 15:46 49.69512 18.40843 36022 ft 473 kts 220°
2026-04-24 15:47 49.64099 18.35028 36031 ft 474 kts 220°
2026-04-24 15:47 49.58694 18.29218 36037 ft 474 kts 220°
2026-04-24 15:48 49.53280 18.23422 36044 ft 474 kts 220°
2026-04-24 15:48 49.47857 18.17648 36033 ft 474 kts 220°
2026-04-24 15:49 49.42444 18.11889 36007 ft 474 kts 219°
2026-04-24 15:49 49.37019 18.06136 36011 ft 474 kts 219°
2026-04-24 15:50 49.31594 18.00399 36014 ft 474 kts 219°
2026-04-24 15:50 49.26163 17.94671 36021 ft 474 kts 219°
2026-04-24 15:51 49.20722 17.88953 36005 ft 475 kts 219°
2026-04-24 15:51 49.15275 17.83236 36014 ft 475 kts 219°
2026-04-24 15:52 49.09822 17.77534 36028 ft 475 kts 219°
2026-04-24 15:52 49.04365 17.71843 35496 ft 477 kts 218°
2026-04-24 15:53 49.01591 17.68951 34399 ft 487 kts 218°
2026-04-24 15:53 48.98817 17.66063 33397 ft 492 kts 218°
2026-04-24 15:53 48.95979 17.63115 32200 ft 494 kts 218°
2026-04-24 15:53 48.93151 17.60187 31227 ft 489 kts 218°
2026-04-24 15:54 48.91260 17.58230 30607 ft 485 kts 218°
2026-04-24 15:54 48.88507 17.55388 30047 ft 472 kts 218°
2026-04-24 15:54 48.85814 17.52617 29351 ft 462 kts 218°
2026-04-24 15:54 48.83189 17.49921 28743 ft 451 kts 217°
2026-04-24 15:55 48.79802 17.46433 27931 ft 438 kts 217°
2026-04-24 15:55 48.78112 17.44691 27532 ft 432 kts 217°
2026-04-24 15:55 48.75648 17.42158 26940 ft 424 kts 217°
2026-04-24 15:55 48.73223 17.39670 26365 ft 418 kts 217°
2026-04-24 15:56 48.70833 17.37225 25795 ft 412 kts 217°
2026-04-24 15:56 48.68473 17.34809 25233 ft 407 kts 217°
2026-04-24 15:56 48.66141 17.32418 24681 ft 403 kts 218°
2026-04-24 15:56 48.63858 17.30081 24140 ft 399 kts 217°
2026-04-24 15:57 48.61572 17.27745 23619 ft 394 kts 217°
2026-04-24 15:57 48.59312 17.25437 23058 ft 390 kts 217°
2026-04-24 15:57 48.57072 17.23151 22561 ft 388 kts 217°
2026-04-24 15:57 48.54839 17.20875 22086 ft 386 kts 217°
2026-04-24 15:58 48.52740 17.18419 21858 ft 379 kts 229°
2026-04-24 15:58 48.51059 17.15271 21406 ft 393 kts 237°
2026-04-24 15:58 48.49455 17.11923 20774 ft 395 kts 238°
2026-04-24 15:58 48.47872 17.08535 20157 ft 396 kts 238°
2026-04-24 15:59 48.46293 17.05121 19542 ft 397 kts 238°
2026-04-24 15:59 48.44710 17.01702 18951 ft 398 kts 238°
2026-04-24 15:59 48.43148 16.98345 18382 ft 399 kts 237°
2026-04-24 15:59 48.41547 16.94930 17732 ft 399 kts 237°
2026-04-24 16:00 48.39945 16.91531 17082 ft 398 kts 237°
2026-04-24 16:00 48.38344 16.88134 16447 ft 397 kts 238°
2026-04-24 16:00 48.36746 16.84747 15822 ft 396 kts 238°
2026-04-24 16:00 48.35155 16.81378 15211 ft 394 kts 238°
2026-04-24 16:01 48.33567 16.78026 14616 ft 392 kts 238°
2026-04-24 16:01 48.31987 16.74690 14028 ft 390 kts 238°
2026-04-24 16:01 48.30337 16.71467 13394 ft 390 kts 230°
2026-04-24 16:01 48.28228 16.68903 12739 ft 393 kts 214°
2026-04-24 16:02 48.25722 16.67274 12104 ft 394 kts 198°
2026-04-24 16:02 48.23012 16.66709 11483 ft 395 kts 181°
2026-04-24 16:02 48.20297 16.67239 10873 ft 394 kts 166°
2026-04-24 16:02 48.17661 16.68328 10290 ft 391 kts 165°
2026-04-24 16:03 48.15051 16.69420 9673 ft 388 kts 165°
2026-04-24 16:03 48.12464 16.70510 9027 ft 385 kts 166°
2026-04-24 16:03 48.09894 16.71597 8378 ft 382 kts 166°
2026-04-24 16:03 48.07366 16.72665 8047 ft 370 kts 166°
2026-04-24 16:04 48.04943 16.73678 7986 ft 352 kts 166°
2026-04-24 16:04 48.02647 16.74634 7997 ft 334 kts 166°
2026-04-24 16:04 48.00467 16.75540 8007 ft 317 kts 166°
2026-04-24 16:04 47.98393 16.76400 7990 ft 302 kts 166°
2026-04-24 16:05 47.94403 16.78045 7483 ft 293 kts 166°
2026-04-24 16:05 47.92454 16.78845 7238 ft 289 kts 166°
2026-04-24 16:06 47.88655 16.80411 6990 ft 274 kts 166°
2026-04-24 16:06 47.86819 16.81164 6996 ft 274 kts 166°
2026-04-24 16:06 47.83119 16.82348 6889 ft 270 kts 186°
2026-04-24 16:07 47.81327 16.81775 6658 ft 261 kts 202°
2026-04-24 16:07 47.79600 16.80952 6386 ft 259 kts 202°
2026-04-24 16:07 47.76370 16.78847 5741 ft 248 kts 234°
2026-04-24 16:08 47.75652 16.76602 5218 ft 244 kts 268°
2026-04-24 16:08 47.77141 16.72515 4106 ft 236 kts 335°
2026-04-24 16:09 47.80117 16.71208 3994 ft 219 kts 341°
2026-04-24 16:09 47.81578 16.70595 3997 ft 218 kts 342°
2026-04-24 16:09 47.83024 16.69989 3996 ft 220 kts 342°
2026-04-24 16:09 47.84496 16.69374 3998 ft 217 kts 342°
2026-04-24 16:10 47.88546 16.67680 3851 ft 194 kts 341°
2026-04-24 16:11 47.91134 16.66594 3261 ft 196 kts 342°
2026-04-24 16:11 47.92452 16.66042 3018 ft 194 kts 342°
2026-04-24 16:11 47.93714 16.65513 3010 ft 185 kts 342°
2026-04-24 16:12 47.95995 16.64558 3014 ft 149 kts 341°
2026-04-24 16:12 47.96961 16.64152 2929 ft 139 kts 340°
2026-04-24 16:12 47.98790 16.63381 2645 ft 135 kts 341°
2026-04-24 16:13 47.99693 16.63000 2471 ft 135 kts 341°
2026-04-24 16:13 48.01483 16.62247 2125 ft 134 kts 342°
2026-04-24 16:14 48.03255 16.61500 1778 ft 131 kts 340°
2026-04-24 16:14 48.04135 16.61129 1595 ft 132 kts 341°
2026-04-24 16:14 48.05917 16.60378 1238 ft 135 kts 340°
2026-04-24 16:15 48.06528 16.60125 1095 ft 135 kts 340°
2026-04-24 16:15 48.08661 16.59232 692 ft 135 kts 338°
2026-04-24 16:16 48.10185 16.58524 618 ft 73 kts 349°
2026-04-24 16:16 48.10569 16.58395 610 ft 50 kts 344°
2026-04-24 16:17 48.11002 16.57865 618 ft 24 kts 316°
2026-04-24 16:17 48.11223 16.57508 614 ft 25 kts 297°
2026-04-24 16:18 48.11368 16.57151 625 ft 3 kts
2026-04-24 16:18 48.11418 16.57193 619 ft 0 kts 27°